Погода в Балахте

Погода в Балахте : погода сейчас, прогноз погоды и архив. Всё, что Вы хотите узнать о погоде в Балахте!

Поиск расширенной информации на нашем сайте:

Другие новости

Новости СМИ2

Главная страница сайта

Новости сайта

03.07.2017

Напоминаем, что на нашем специализированном сайте Метеоцентр.Азия вы можете получить высокодетализированные автоматические прогнозы погоды по пунктам России, СНГ и мира в авиационном формате (включающие направление и скорость ветра, видимость, явления погоды, количество и форму облачности, нижнюю и верхнюю границу облачности).


Погода в Балахте - сегодня

Время (UTC), дата Ветер
(°,м/с) 
Видим.   Явления Облачность Т
(°С)
Тd
(°С)
f(%) Тe
(°С)
Pmin
(гПа)
dP
(гПа)
Po
(мм)
O2
(г/м3)
Тmin Tmax R s Состояние
почвы
21 21.11.17 240 (ЮЗ) 4000 м  слаб. снег  10/10 1000 м 
[Sc]
-3 -7.2 73 -4  1029  -2.8  741  303           
00 22.11.17 230 (ЮЗ) 1000 м  сильн. снег  10/10 1000 м 
[Ns]
-3.8 -4.3 96 -5  1025.4  -3.5  738  302  -4    20  равномерный
сухой снег
100% 
03 22.11.17 230 (ЮЗ) 5{10}  10 км  слаб. снег  10/10 1000 м 
[Sc]
-3.2 -4.3 92 -7  1024.2  -1.2  738  301           
06 22.11.17 270 (З) 10 км  слаб. снег  10/10 1000 м 
[Sc]
-2.4 -4 89 -5  1025.8  1.7  739  301           
09 22.11.17 270 (З) 20000 м  слаб. ливневой снег  10/10 600 м кучево-дожд. 
[Cb cap]
-1.8 -3.9 86 -5  1028.4  2.7  741  301           
12 22.11.17 240 (ЮЗ) 4000 м  слаб. ливневой снег  10/10 600 м кучево-дожд. 
[Cb cap]
-2 -3.8 87 -4  1031.1  2.4  743  302    -1.8     
15 22.11.17 220 (ЮЗ) 4000 м  слаб. снег{ливн. осадки}  10/10 1000 м 
[Sc]
-2.8 -4.1 91 -4  1031.8  0.7  743  303           
18 22.11.17 210 (ЮЗ) 2000 м  снег{ливн. осадки}  10/10 1000 м 
[Ns]
-3 -4 93 -5  1031.7  -0.2  743  303           
21 22.11.17 200 (Ю) 4000 м  слаб. снег  10/10 1000 м 
[Sc]
-3.2 -4.6 90 -3  1031.3  -0.4  743  303           
00 23.11.17 210 (ЮЗ) 2000 м  снег  10/10 1000 м 
[Ns]
-3.6 -4.4 94 -3  1030.4  -0.9  742  303  -3.7    24  равномерный
сухой снег
100% 
03 23.11.17 200 (Ю) 2000 м  снег  10/10 1000 м 
[Ns]
-3.6 -3.8 99 -3  1030  -0.4  742  303  -3.9         
06 23.11.17 240 (ЮЗ) 20000 м  {снег}  10/10 1000 м 
[Sc]
-2.2 -4.1 87 -4  1028.8  -1  741  301           
09 23.11.17 210 (ЮЗ) 20000 м    10/0 средняя 
[As op]
-2.4 -4.6 85 -2  1028  -0.8  740  301           
12 23.11.17 220 (ЮЗ) 20000 м    10/0 средняя 
[As op]
-3.8 -6 85 -3  1026.6  -1.5  739  303    -1.9     
15 23.11.17 180 (Ю) 20000 м    10/10 600 м кучево-дожд. 
[Cb cap]
-3.4 -7.3 74 -3  1026.2  -0.4  739  302           
18 23.11.17 260 (З) 20000 м    10/10 1000 м 
[Sc]
-2 -9.1 58 -1  1025.8  -0.2  739  301           
21 23.11.17 180 (Ю) 20000 м    8/8 1000 м 
[Sc]
-4 -8.5 71 -4  1026.1  739  303           
00 24.11.17 180 (Ю) 20000 м    9/9 1000 м 
[Sc]
-4.9 -9.3 71 -4  1025.9  -1.3  739  304  -5      25  равномерный
сухой снег
100% 
03 24.11.17 280 (З) 20000 м    9/0 средняя, верхняя 
[Ac lent|Ci sp]
-5.8 -10.6 69 -7  1026.8  0.7  739  305  -5.8         
06 24.11.17 240 (ЮЗ) 20000 м    10/0 средняя 
[As op]
-4.3 -10.3 63 -7  1026.7  0.2  739  304           
09 24.11.17 230 (ЮЗ) 20000 м  слаб. ливневой снег  10/5 600 м кучево-дожд., средняя 
[Cb cap|As op]
-4 -9.4 66 -4  1026.5  -0.2  739  303           
12 24.11.17 170 (Ю) 20000 м  {ливн. осадки}  10/0 средняя 
[As op]
-4.6 -7.7 79 -4  1025.6  -0.8  739  303    -3.8  0.0     
15 24.11.17 120 (ЮВ) 20000 м    ясно 
-7 -9.1 85 -7  1025.1  -1  738  306           
18 24.11.17 120 (ЮВ) 20000 м    ясно 
-9.2 -10.3 92 -11  1025.5  0.1  738  309           
21 24.11.17 130 (ЮВ) 20000 м    ясно 
-8.1 -10.4 83 -8  1025.3  -0.1  738  307           
Время (UTC), дата Ветер
(°,м/с) 
Видим.   Явления Облачность Т
(°С)
Тd
(°С)
f(%) Тe
(°С)
Pmin
(гПа)
dP
(гПа)
Po
(мм)
O2
(г/м3)
Тmin Tmax R s Состояние
почвы

Для получения пояснительной информации подведите курсор к названию столбца.

ПОГОДА в Балахте - архив

Всё, что Вы хотите узнать о погоде в Балахте - удобно и подробно!

Выберите нужную дату (начиная с 1 января 2015* года) и нажмите кнопку "Найти".
Будут отображены архивные сводки погоды по пункту Балахта, начиная с указанной даты.


Отображать данные в формате CSV (для использования в таблицах Excel)


Внимание! Наш архив погоды предназначен исключительно для личного некоммерческого использования в познавательных целях. Если Вам необходимы официальные справки о состоянии погоды (для производственных, юридических, коммерческих и т.п. целей), обращайтесь в органы Росгидромета.

*Примечание: данная дата относится к архиву по метеостанциям СССР (Россия, СНГ, Балтия).
Архив по метеостанциям Зарубежной Европы и Азии (кроме Китая) хранится 10 дней, по другим регионам земного шара (Китай, Африка, Америка, Австралия, Океания) - 1 день.

Балахта - район местоположения метеостанции


Название, широта, долгота, высота метеостанции:
Балахта 55.4°ш. 91.7°д. 321 м над ур. моря [Российская Федерация]

Дополнительная информация

В oтличие oт бoльшинства пoгoдных сайтoв мы публикуем пoдрoбную метеoинфoрмацию в детальнoм прoфессиoнальнoм фoрмате.

Характеристики температуры и влажнoсти вoздуха измеряются на высoте 2 м в тени вдали oт зданий и деревьев.
Скoрoсть ветра измеряется на высoте 10 м (на урoвне рoста челoвека скoрoсть ветра ниже в 1.5-2 раза). Если метеoстанция нахoдится в гoрoде или в лесу, тo скoрoсть ветра занижена на 2-4 м/с пo сравнению с oткрытым местoм. Скoрoсть ветра над акватoриями крупных рек и oзёр, а также на вершинах хoлмoв на 2-5 м/с выше, чем в oбычных услoвиях.
Атмoсфернoе давление в разных тoчках местнoсти мoжет значительнo oтличаться oт давления на метеoстанции, в зависимoсти oт услoвий рельефа (при пoдъёме на 10 м давление пoнижается примернo на 1 мм рт.ст.).